Data supplied by UK-AIR on 5/4/2008
All Data GMT hour ending 
Status: R =Ratified P=Provisional,P*=As supplied
,,Bottesford,,,,,,,,,,,,,,,,,,,,,,,
Date,time,"Ozone",status,unit
 
01-01-2001,01:00,56,R,ugm-3
01-01-2001,02:00,52,R,ugm-3
01-01-2001,03:00,54,R,ugm-3
01-01-2001,04:00,54,R,ugm-3
01-01-2001,05:00,52,R,ugm-3
01-01-2001,06:00,50,R,ugm-3
01-01-2001,07:00,48,R,ugm-3
01-01-2001,08:00,48,R,ugm-3
01-01-2001,09:00,50,R,ugm-3
01-01-2001,10:00,56,R,ugm-3
01-01-2001,11:00,62,R,ugm-3
01-01-2001,12:00,68,R,ugm-3
01-01-2001,13:00,74,R,ugm-3
01-01-2001,14:00,76,R,ugm-3
01-01-2001,15:00,72,R,ugm-3
01-01-2001,16:00,68,R,ugm-3
01-01-2001,17:00,66,R,ugm-3
01-01-2001,18:00,68,R,ugm-3
01-01-2001,19:00,68,R,ugm-3
01-01-2001,20:00,64,R,ugm-3
01-01-2001,21:00,62,R,ugm-3
01-01-2001,22:00,68,R,ugm-3
01-01-2001,23:00,70,R,ugm-3
01-01-2001,24:00,74,R,ugm-3
02-01-2001,01:00,76,R,ugm-3
02-01-2001,02:00,76,R,ugm-3
02-01-2001,03:00,76,R,ugm-3
02-01-2001,04:00,74,R,ugm-3
02-01-2001,05:00,78,R,ugm-3
02-01-2001,06:00,74,R,ugm-3
02-01-2001,07:00,72,R,ugm-3
02-01-2001,08:00,72,R,ugm-3
02-01-2001,09:00,72,R,ugm-3
02-01-2001,10:00,66,R,ugm-3
02-01-2001,11:00,64,R,ugm-3
02-01-2001,12:00,62,R,ugm-3
02-01-2001,13:00,62,R,ugm-3
02-01-2001,14:00,66,R,ugm-3
02-01-2001,15:00,62,R,ugm-3
02-01-2001,16:00,46,R,ugm-3
02-01-2001,17:00,40,R,ugm-3
02-01-2001,18:00,40,R,ugm-3
02-01-2001,19:00,38,R,ugm-3
02-01-2001,20:00,42,R,ugm-3
02-01-2001,21:00,44,R,ugm-3
02-01-2001,22:00,58,R,ugm-3
02-01-2001,23:00,58,R,ugm-3
02-01-2001,24:00,66,R,ugm-3
03-01-2001,01:00,64,R,ugm-3
03-01-2001,02:00,66,R,ugm-3
03-01-2001,03:00,62,R,ugm-3
03-01-2001,04:00,50,R,ugm-3
03-01-2001,05:00,58,R,ugm-3
03-01-2001,06:00,58,R,ugm-3
03-01-2001,07:00,52,R,ugm-3
03-01-2001,08:00,44,R,ugm-3
03-01-2001,09:00,42,R,ugm-3
03-01-2001,10:00,38,R,ugm-3
03-01-2001,11:00,52,R,ugm-3
03-01-2001,12:00,56,R,ugm-3
03-01-2001,13:00,50,R,ugm-3
03-01-2001,14:00,58,R,ugm-3
03-01-2001,15:00,52,R,ugm-3
03-01-2001,16:00,54,R,ugm-3
03-01-2001,17:00,50,R,ugm-3
03-01-2001,18:00,60,R,ugm-3
03-01-2001,19:00,56,R,ugm-3
03-01-2001,20:00,52,R,ugm-3
03-01-2001,21:00,46,R,ugm-3
03-01-2001,22:00,42,R,ugm-3
03-01-2001,23:00,36,R,ugm-3
03-01-2001,24:00,42,R,ugm-3
04-01-2001,01:00,42,R,ugm-3
04-01-2001,02:00,50,R,ugm-3
04-01-2001,03:00,58,R,ugm-3
04-01-2001,04:00,62,R,ugm-3
04-01-2001,05:00,64,R,ugm-3
04-01-2001,06:00,60,R,ugm-3
04-01-2001,07:00,56,R,ugm-3
04-01-2001,08:00,52,R,ugm-3
04-01-2001,09:00,46,R,ugm-3
04-01-2001,10:00,30,R,ugm-3
04-01-2001,11:00,18,R,ugm-3
04-01-2001,12:00,26,R,ugm-3
04-01-2001,13:00,10,R,ugm-3
04-01-2001,14:00,8,R,ugm-3
04-01-2001,15:00,14,R,ugm-3
04-01-2001,16:00,28,R,ugm-3
04-01-2001,17:00,26,R,ugm-3
04-01-2001,18:00,28,R,ugm-3
04-01-2001,19:00,32,R,ugm-3
04-01-2001,20:00,30,R,ugm-3
04-01-2001,21:00,26,R,ugm-3
04-01-2001,22:00,22,R,ugm-3
04-01-2001,23:00,16,R,ugm-3
04-01-2001,24:00,0,R,ugm-3
05-01-2001,01:00,0,R,ugm-3
05-01-2001,02:00,0,R,ugm-3
05-01-2001,03:00,2,R,ugm-3
05-01-2001,04:00,2,R,ugm-3
05-01-2001,05:00,2,R,ugm-3
05-01-2001,06:00,2,R,ugm-3
05-01-2001,07:00,0,R,ugm-3
05-01-2001,08:00,2,R,ugm-3
05-01-2001,09:00,0,R,ugm-3
05-01-2001,10:00,2,R,ugm-3
05-01-2001,11:00,8,R,ugm-3
05-01-2001,12:00,4,R,ugm-3
05-01-2001,13:00,4,R,ugm-3
05-01-2001,14:00,6,R,ugm-3
05-01-2001,15:00,6,R,ugm-3
05-01-2001,16:00,2,R,ugm-3
05-01-2001,17:00,0,R,ugm-3
05-01-2001,18:00,0,R,ugm-3
05-01-2001,19:00,0,R,ugm-3
05-01-2001,20:00,0,R,ugm-3
05-01-2001,21:00,0,R,ugm-3
05-01-2001,22:00,0,R,ugm-3
05-01-2001,23:00,0,R,ugm-3
05-01-2001,24:00,0,R,ugm-3
06-01-2001,01:00,0,R,ugm-3
06-01-2001,02:00,0,R,ugm-3
06-01-2001,03:00,0,R,ugm-3
06-01-2001,04:00,0,R,ugm-3
06-01-2001,05:00,2,R,ugm-3
06-01-2001,06:00,6,R,ugm-3
06-01-2001,07:00,22,R,ugm-3
06-01-2001,08:00,32,R,ugm-3
06-01-2001,09:00,30,R,ugm-3
06-01-2001,10:00,36,R,ugm-3
06-01-2001,11:00,40,R,ugm-3
06-01-2001,12:00,46,R,ugm-3
06-01-2001,13:00,50,R,ugm-3
06-01-2001,14:00,48,R,ugm-3
06-01-2001,15:00,48,R,ugm-3
06-01-2001,16:00,42,R,ugm-3
06-01-2001,17:00,34,R,ugm-3
06-01-2001,18:00,34,R,ugm-3
06-01-2001,19:00,36,R,ugm-3
06-01-2001,20:00,34,R,ugm-3
06-01-2001,21:00,32,R,ugm-3
06-01-2001,22:00,30,R,ugm-3
06-01-2001,23:00,38,R,ugm-3
06-01-2001,24:00,42,R,ugm-3
07-01-2001,01:00,42,R,ugm-3
07-01-2001,02:00,40,R,ugm-3
07-01-2001,03:00,40,R,ugm-3
07-01-2001,04:00,42,R,ugm-3
07-01-2001,05:00,44,R,ugm-3
07-01-2001,06:00,44,R,ugm-3
07-01-2001,07:00,48,R,ugm-3
07-01-2001,08:00,50,R,ugm-3
07-01-2001,09:00,50,R,ugm-3
07-01-2001,10:00,50,R,ugm-3
07-01-2001,11:00,52,R,ugm-3
07-01-2001,12:00,52,R,ugm-3
07-01-2001,13:00,54,R,ugm-3
07-01-2001,14:00,56,R,ugm-3
07-01-2001,15:00,60,R,ugm-3
07-01-2001,16:00,62,R,ugm-3
07-01-2001,17:00,62,R,ugm-3
07-01-2001,18:00,66,R,ugm-3
07-01-2001,19:00,64,R,ugm-3
07-01-2001,20:00,54,R,ugm-3
07-01-2001,21:00,54,R,ugm-3
07-01-2001,22:00,58,R,ugm-3
07-01-2001,23:00,60,R,ugm-3
07-01-2001,24:00,56,R,ugm-3
08-01-2001,01:00,54,R,ugm-3
08-01-2001,02:00,50,R,ugm-3
08-01-2001,03:00,50,R,ugm-3
08-01-2001,04:00,50,R,ugm-3
08-01-2001,05:00,46,R,ugm-3
08-01-2001,06:00,40,R,ugm-3
08-01-2001,07:00,44,R,ugm-3
08-01-2001,08:00,36,R,ugm-3
08-01-2001,09:00,30,R,ugm-3
08-01-2001,10:00,26,R,ugm-3
08-01-2001,11:00,28,R,ugm-3
08-01-2001,12:00,36,R,ugm-3
08-01-2001,13:00,40,R,ugm-3
08-01-2001,14:00,42,R,ugm-3
08-01-2001,15:00,38,R,ugm-3
08-01-2001,16:00,40,R,ugm-3
08-01-2001,17:00,42,R,ugm-3
08-01-2001,18:00,36,R,ugm-3
08-01-2001,19:00,30,R,ugm-3
08-01-2001,20:00,30,R,ugm-3
08-01-2001,21:00,26,R,ugm-3
08-01-2001,22:00,22,R,ugm-3
08-01-2001,23:00,18,R,ugm-3
08-01-2001,24:00,16,R,ugm-3
09-01-2001,01:00,20,R,ugm-3
09-01-2001,02:00,22,R,ugm-3
09-01-2001,03:00,28,R,ugm-3
09-01-2001,04:00,26,R,ugm-3
09-01-2001,05:00,26,R,ugm-3
09-01-2001,06:00,26,R,ugm-3
09-01-2001,07:00,26,R,ugm-3
09-01-2001,08:00,26,R,ugm-3
09-01-2001,09:00,12,R,ugm-3
09-01-2001,10:00,10,R,ugm-3
09-01-2001,11:00,14,R,ugm-3
09-01-2001,12:00,14,R,ugm-3
09-01-2001,13:00,,,
09-01-2001,14:00,,,
09-01-2001,15:00,10,R,ugm-3
09-01-2001,16:00,2,R,ugm-3
09-01-2001,17:00,2,R,ugm-3
09-01-2001,18:00,2,R,ugm-3
09-01-2001,19:00,2,R,ugm-3
09-01-2001,20:00,4,R,ugm-3
09-01-2001,21:00,2,R,ugm-3
09-01-2001,22:00,2,R,ugm-3
09-01-2001,23:00,2,R,ugm-3
09-01-2001,24:00,2,R,ugm-3
10-01-2001,01:00,2,R,ugm-3
10-01-2001,02:00,2,R,ugm-3
10-01-2001,03:00,2,R,ugm-3
10-01-2001,04:00,0,R,ugm-3
10-01-2001,05:00,0,R,ugm-3
10-01-2001,06:00,0,R,ugm-3
10-01-2001,07:00,2,R,ugm-3
10-01-2001,08:00,14,R,ugm-3
10-01-2001,09:00,18,R,ugm-3
10-01-2001,10:00,30,R,ugm-3
10-01-2001,11:00,42,R,ugm-3
10-01-2001,12:00,52,R,ugm-3
10-01-2001,13:00,66,R,ugm-3
10-01-2001,14:00,66,R,ugm-3
10-01-2001,15:00,62,R,ugm-3
10-01-2001,16:00,60,R,ugm-3
10-01-2001,17:00,44,R,ugm-3
10-01-2001,18:00,48,R,ugm-3
10-01-2001,19:00,38,R,ugm-3
10-01-2001,20:00,36,R,ugm-3
10-01-2001,21:00,50,R,ugm-3
10-01-2001,22:00,58,R,ugm-3
10-01-2001,23:00,66,R,ugm-3
10-01-2001,24:00,62,R,ugm-3
11-01-2001,01:00,64,R,ugm-3
11-01-2001,02:00,62,R,ugm-3
11-01-2001,03:00,58,R,ugm-3
11-01-2001,04:00,60,R,ugm-3
11-01-2001,05:00,60,R,ugm-3
11-01-2001,06:00,60,R,ugm-3
11-01-2001,07:00,58,R,ugm-3
11-01-2001,08:00,56,R,ugm-3
11-01-2001,09:00,52,R,ugm-3
11-01-2001,10:00,46,R,ugm-3
11-01-2001,11:00,52,R,ugm-3
11-01-2001,12:00,56,R,ugm-3
11-01-2001,13:00,58,R,ugm-3
11-01-2001,14:00,58,R,ugm-3
11-01-2001,15:00,54,R,ugm-3
11-01-2001,16:00,50,R,ugm-3
11-01-2001,17:00,44,R,ugm-3
11-01-2001,18:00,42,R,ugm-3
11-01-2001,19:00,40,R,ugm-3
11-01-2001,20:00,52,R,ugm-3
11-01-2001,21:00,62,R,ugm-3
11-01-2001,22:00,62,R,ugm-3
11-01-2001,23:00,66,R,ugm-3
11-01-2001,24:00,74,R,ugm-3
12-01-2001,01:00,72,R,ugm-3
12-01-2001,02:00,68,R,ugm-3
12-01-2001,03:00,70,R,ugm-3
12-01-2001,04:00,66,R,ugm-3
12-01-2001,05:00,64,R,ugm-3
12-01-2001,06:00,64,R,ugm-3
12-01-2001,07:00,58,R,ugm-3
12-01-2001,08:00,52,R,ugm-3
12-01-2001,09:00,50,R,ugm-3
12-01-2001,10:00,46,R,ugm-3
12-01-2001,11:00,54,R,ugm-3
12-01-2001,12:00,56,R,ugm-3
12-01-2001,13:00,54,R,ugm-3
12-01-2001,14:00,62,R,ugm-3
12-01-2001,15:00,60,R,ugm-3
12-01-2001,16:00,46,R,ugm-3
12-01-2001,17:00,36,R,ugm-3
12-01-2001,18:00,38,R,ugm-3
12-01-2001,19:00,30,R,ugm-3
12-01-2001,20:00,18,R,ugm-3
12-01-2001,21:00,20,R,ugm-3
12-01-2001,22:00,26,R,ugm-3
12-01-2001,23:00,40,R,ugm-3
12-01-2001,24:00,42,R,ugm-3
13-01-2001,01:00,44,R,ugm-3
13-01-2001,02:00,50,R,ugm-3
13-01-2001,03:00,50,R,ugm-3
13-01-2001,04:00,44,R,ugm-3
13-01-2001,05:00,32,R,ugm-3
13-01-2001,06:00,36,R,ugm-3
13-01-2001,07:00,42,R,ugm-3
13-01-2001,08:00,18,R,ugm-3
13-01-2001,09:00,10,R,ugm-3
13-01-2001,10:00,14,R,ugm-3
13-01-2001,11:00,14,R,ugm-3
13-01-2001,12:00,20,R,ugm-3
13-01-2001,13:00,32,R,ugm-3
13-01-2001,14:00,34,R,ugm-3
13-01-2001,15:00,38,R,ugm-3
13-01-2001,16:00,30,R,ugm-3
13-01-2001,17:00,20,R,ugm-3
13-01-2001,18:00,14,R,ugm-3
13-01-2001,19:00,18,R,ugm-3
13-01-2001,20:00,10,R,ugm-3
13-01-2001,21:00,22,R,ugm-3
13-01-2001,22:00,22,R,ugm-3
13-01-2001,23:00,24,R,ugm-3
13-01-2001,24:00,34,R,ugm-3
14-01-2001,01:00,40,R,ugm-3
14-01-2001,02:00,40,R,ugm-3
14-01-2001,03:00,40,R,ugm-3
14-01-2001,04:00,38,R,ugm-3
14-01-2001,05:00,38,R,ugm-3
14-01-2001,06:00,40,R,ugm-3
14-01-2001,07:00,42,R,ugm-3
14-01-2001,08:00,26,R,ugm-3
14-01-2001,09:00,16,R,ugm-3
14-01-2001,10:00,18,R,ugm-3
14-01-2001,11:00,10,R,ugm-3
14-01-2001,12:00,10,R,ugm-3
14-01-2001,13:00,8,R,ugm-3
14-01-2001,14:00,10,R,ugm-3
14-01-2001,15:00,8,R,ugm-3
14-01-2001,16:00,6,R,ugm-3
14-01-2001,17:00,2,R,ugm-3
14-01-2001,18:00,0,R,ugm-3
14-01-2001,19:00,0,R,ugm-3
14-01-2001,20:00,0,R,ugm-3
14-01-2001,21:00,0,R,ugm-3
14-01-2001,22:00,0,R,ugm-3
14-01-2001,23:00,4,R,ugm-3
14-01-2001,24:00,14,R,ugm-3
15-01-2001,01:00,58,R,ugm-3
15-01-2001,02:00,68,R,ugm-3
15-01-2001,03:00,68,R,ugm-3
15-01-2001,04:00,66,R,ugm-3
15-01-2001,05:00,58,R,ugm-3
15-01-2001,06:00,52,R,ugm-3
15-01-2001,07:00,52,R,ugm-3
15-01-2001,08:00,52,R,ugm-3
15-01-2001,09:00,40,R,ugm-3
15-01-2001,10:00,40,R,ugm-3
15-01-2001,11:00,42,R,ugm-3
15-01-2001,12:00,48,R,ugm-3
15-01-2001,13:00,52,R,ugm-3
15-01-2001,14:00,50,R,ugm-3
15-01-2001,15:00,44,R,ugm-3
15-01-2001,16:00,36,R,ugm-3
15-01-2001,17:00,12,R,ugm-3
15-01-2001,18:00,4,R,ugm-3
15-01-2001,19:00,0,R,ugm-3
15-01-2001,20:00,2,R,ugm-3
15-01-2001,21:00,0,R,ugm-3
15-01-2001,22:00,0,R,ugm-3
15-01-2001,23:00,0,R,ugm-3
15-01-2001,24:00,0,R,ugm-3
16-01-2001,01:00,0,R,ugm-3
16-01-2001,02:00,0,R,ugm-3
16-01-2001,03:00,0,R,ugm-3
16-01-2001,04:00,0,R,ugm-3
16-01-2001,05:00,0,R,ugm-3
16-01-2001,06:00,0,R,ugm-3
16-01-2001,07:00,2,R,ugm-3
16-01-2001,08:00,2,R,ugm-3
16-01-2001,09:00,2,R,ugm-3
16-01-2001,10:00,2,R,ugm-3
16-01-2001,11:00,2,R,ugm-3
16-01-2001,12:00,4,R,ugm-3
16-01-2001,13:00,4,R,ugm-3
16-01-2001,14:00,2,R,ugm-3
16-01-2001,15:00,2,R,ugm-3
16-01-2001,16:00,2,R,ugm-3
16-01-2001,17:00,2,R,ugm-3
16-01-2001,18:00,2,R,ugm-3
16-01-2001,19:00,2,R,ugm-3
16-01-2001,20:00,2,R,ugm-3
16-01-2001,21:00,2,R,ugm-3
16-01-2001,22:00,4,R,ugm-3
16-01-2001,23:00,4,R,ugm-3
16-01-2001,24:00,2,R,ugm-3
17-01-2001,01:00,14,R,ugm-3
17-01-2001,02:00,4,R,ugm-3
17-01-2001,03:00,2,R,ugm-3
17-01-2001,04:00,2,R,ugm-3
17-01-2001,05:00,4,R,ugm-3
17-01-2001,06:00,4,R,ugm-3
17-01-2001,07:00,4,R,ugm-3
17-01-2001,08:00,2,R,ugm-3
17-01-2001,09:00,2,R,ugm-3
17-01-2001,10:00,2,R,ugm-3
17-01-2001,11:00,4,R,ugm-3
17-01-2001,12:00,4,R,ugm-3
17-01-2001,13:00,4,R,ugm-3
17-01-2001,14:00,4,R,ugm-3
17-01-2001,15:00,4,R,ugm-3
17-01-2001,16:00,2,R,ugm-3
17-01-2001,17:00,8,R,ugm-3
17-01-2001,18:00,6,R,ugm-3
17-01-2001,19:00,6,R,ugm-3
17-01-2001,20:00,2,R,ugm-3
17-01-2001,21:00,6,R,ugm-3
17-01-2001,22:00,6,R,ugm-3
17-01-2001,23:00,6,R,ugm-3
17-01-2001,24:00,4,R,ugm-3
18-01-2001,01:00,4,R,ugm-3
18-01-2001,02:00,2,R,ugm-3
18-01-2001,03:00,2,R,ugm-3
18-01-2001,04:00,2,R,ugm-3
18-01-2001,05:00,2,R,ugm-3
18-01-2001,06:00,6,R,ugm-3
18-01-2001,07:00,2,R,ugm-3
18-01-2001,08:00,4,R,ugm-3
18-01-2001,09:00,2,R,ugm-3
18-01-2001,10:00,2,R,ugm-3
18-01-2001,11:00,2,R,ugm-3
18-01-2001,12:00,2,R,ugm-3
18-01-2001,13:00,4,R,ugm-3
18-01-2001,14:00,4,R,ugm-3
18-01-2001,15:00,2,R,ugm-3
18-01-2001,16:00,2,R,ugm-3
18-01-2001,17:00,2,R,ugm-3
18-01-2001,18:00,2,R,ugm-3
18-01-2001,19:00,4,R,ugm-3
18-01-2001,20:00,2,R,ugm-3
18-01-2001,21:00,2,R,ugm-3
18-01-2001,22:00,2,R,ugm-3
18-01-2001,23:00,2,R,ugm-3
18-01-2001,24:00,2,R,ugm-3
19-01-2001,01:00,2,R,ugm-3
19-01-2001,02:00,2,R,ugm-3
19-01-2001,03:00,2,R,ugm-3
19-01-2001,04:00,2,R,ugm-3
19-01-2001,05:00,2,R,ugm-3
19-01-2001,06:00,2,R,ugm-3
19-01-2001,07:00,2,R,ugm-3
19-01-2001,08:00,2,R,ugm-3
19-01-2001,09:00,6,R,ugm-3
19-01-2001,10:00,4,R,ugm-3
19-01-2001,11:00,2,R,ugm-3
19-01-2001,12:00,,,
19-01-2001,13:00,4,R,ugm-3
19-01-2001,14:00,2,R,ugm-3
19-01-2001,15:00,2,R,ugm-3
19-01-2001,16:00,2,R,ugm-3
19-01-2001,17:00,2,R,ugm-3
19-01-2001,18:00,4,R,ugm-3
19-01-2001,19:00,2,R,ugm-3
19-01-2001,20:00,2,R,ugm-3
19-01-2001,21:00,2,R,ugm-3
19-01-2001,22:00,2,R,ugm-3
19-01-2001,23:00,2,R,ugm-3
19-01-2001,24:00,4,R,ugm-3
20-01-2001,01:00,4,R,ugm-3
20-01-2001,02:00,2,R,ugm-3
20-01-2001,03:00,2,R,ugm-3
20-01-2001,04:00,2,R,ugm-3
20-01-2001,05:00,2,R,ugm-3
20-01-2001,06:00,0,R,ugm-3
20-01-2001,07:00,0,R,ugm-3
20-01-2001,08:00,0,R,ugm-3
20-01-2001,09:00,0,R,ugm-3
20-01-2001,10:00,2,R,ugm-3
20-01-2001,11:00,6,R,ugm-3
20-01-2001,12:00,8,R,ugm-3
20-01-2001,13:00,12,R,ugm-3
20-01-2001,14:00,10,R,ugm-3
20-01-2001,15:00,10,R,ugm-3
20-01-2001,16:00,6,R,ugm-3
20-01-2001,17:00,2,R,ugm-3
20-01-2001,18:00,2,R,ugm-3
20-01-2001,19:00,2,R,ugm-3
20-01-2001,20:00,0,R,ugm-3
20-01-2001,21:00,0,R,ugm-3
20-01-2001,22:00,0,R,ugm-3
20-01-2001,23:00,0,R,ugm-3
20-01-2001,24:00,2,R,ugm-3
21-01-2001,01:00,0,R,ugm-3
21-01-2001,02:00,2,R,ugm-3
21-01-2001,03:00,2,R,ugm-3
21-01-2001,04:00,4,R,ugm-3
21-01-2001,05:00,2,R,ugm-3
21-01-2001,06:00,0,R,ugm-3
21-01-2001,07:00,0,R,ugm-3
21-01-2001,08:00,0,R,ugm-3
21-01-2001,09:00,0,R,ugm-3
21-01-2001,10:00,4,R,ugm-3
21-01-2001,11:00,10,R,ugm-3
21-01-2001,12:00,20,R,ugm-3
21-01-2001,13:00,26,R,ugm-3
21-01-2001,14:00,26,R,ugm-3
21-01-2001,15:00,22,R,ugm-3
21-01-2001,16:00,22,R,ugm-3
21-01-2001,17:00,30,R,ugm-3
21-01-2001,18:00,24,R,ugm-3
21-01-2001,19:00,28,R,ugm-3
21-01-2001,20:00,32,R,ugm-3
21-01-2001,21:00,28,R,ugm-3
21-01-2001,22:00,28,R,ugm-3
21-01-2001,23:00,20,R,ugm-3
21-01-2001,24:00,28,R,ugm-3
22-01-2001,01:00,28,R,ugm-3
22-01-2001,02:00,28,R,ugm-3
22-01-2001,03:00,26,R,ugm-3
22-01-2001,04:00,24,R,ugm-3
22-01-2001,05:00,20,R,ugm-3
22-01-2001,06:00,20,R,ugm-3
22-01-2001,07:00,18,R,ugm-3
22-01-2001,08:00,22,R,ugm-3
22-01-2001,09:00,18,R,ugm-3
22-01-2001,10:00,12,R,ugm-3
22-01-2001,11:00,10,R,ugm-3
22-01-2001,12:00,12,R,ugm-3
22-01-2001,13:00,10,R,ugm-3
22-01-2001,14:00,8,R,ugm-3
22-01-2001,15:00,6,R,ugm-3
22-01-2001,16:00,14,R,ugm-3
22-01-2001,17:00,18,R,ugm-3
22-01-2001,18:00,20,R,ugm-3
22-01-2001,19:00,26,R,ugm-3
22-01-2001,20:00,26,R,ugm-3
22-01-2001,21:00,22,R,ugm-3
22-01-2001,22:00,34,R,ugm-3
22-01-2001,23:00,60,R,ugm-3
22-01-2001,24:00,66,R,ugm-3
23-01-2001,01:00,64,R,ugm-3
23-01-2001,02:00,68,R,ugm-3
23-01-2001,03:00,68,R,ugm-3
23-01-2001,04:00,68,R,ugm-3
23-01-2001,05:00,66,R,ugm-3
23-01-2001,06:00,64,R,ugm-3
23-01-2001,07:00,64,R,ugm-3
23-01-2001,08:00,60,R,ugm-3
23-01-2001,09:00,52,R,ugm-3
23-01-2001,10:00,52,R,ugm-3
23-01-2001,11:00,52,R,ugm-3
23-01-2001,12:00,58,R,ugm-3
23-01-2001,13:00,62,R,ugm-3
23-01-2001,14:00,56,R,ugm-3
23-01-2001,15:00,56,R,ugm-3
23-01-2001,16:00,54,R,ugm-3
23-01-2001,17:00,50,R,ugm-3
23-01-2001,18:00,52,R,ugm-3
23-01-2001,19:00,62,R,ugm-3
23-01-2001,20:00,70,R,ugm-3
23-01-2001,21:00,76,R,ugm-3
23-01-2001,22:00,76,R,ugm-3
23-01-2001,23:00,76,R,ugm-3
23-01-2001,24:00,76,R,ugm-3
24-01-2001,01:00,78,R,ugm-3
24-01-2001,02:00,76,R,ugm-3
24-01-2001,03:00,78,R,ugm-3
24-01-2001,04:00,80,R,ugm-3
24-01-2001,05:00,72,R,ugm-3
24-01-2001,06:00,74,R,ugm-3
24-01-2001,07:00,70,R,ugm-3
24-01-2001,08:00,70,R,ugm-3
24-01-2001,09:00,68,R,ugm-3
24-01-2001,10:00,66,R,ugm-3
24-01-2001,11:00,70,R,ugm-3
24-01-2001,12:00,72,R,ugm-3
24-01-2001,13:00,74,R,ugm-3
24-01-2001,14:00,72,R,ugm-3
24-01-2001,15:00,72,R,ugm-3
24-01-2001,16:00,70,R,ugm-3
24-01-2001,17:00,64,R,ugm-3
24-01-2001,18:00,64,R,ugm-3
24-01-2001,19:00,68,R,ugm-3
24-01-2001,20:00,64,R,ugm-3
24-01-2001,21:00,68,R,ugm-3
24-01-2001,22:00,66,R,ugm-3
24-01-2001,23:00,64,R,ugm-3
24-01-2001,24:00,60,R,ugm-3
25-01-2001,01:00,60,R,ugm-3
25-01-2001,02:00,60,R,ugm-3
25-01-2001,03:00,54,R,ugm-3
25-01-2001,04:00,68,R,ugm-3
25-01-2001,05:00,72,R,ugm-3
25-01-2001,06:00,68,R,ugm-3
25-01-2001,07:00,66,R,ugm-3
25-01-2001,08:00,62,R,ugm-3
25-01-2001,09:00,64,R,ugm-3
25-01-2001,10:00,66,R,ugm-3
25-01-2001,11:00,68,R,ugm-3
25-01-2001,12:00,68,R,ugm-3
25-01-2001,13:00,70,R,ugm-3
25-01-2001,14:00,72,R,ugm-3
25-01-2001,15:00,68,R,ugm-3
25-01-2001,16:00,64,R,ugm-3
25-01-2001,17:00,62,R,ugm-3
25-01-2001,18:00,62,R,ugm-3
25-01-2001,19:00,62,R,ugm-3
25-01-2001,20:00,66,R,ugm-3
25-01-2001,21:00,66,R,ugm-3
25-01-2001,22:00,68,R,ugm-3
25-01-2001,23:00,70,R,ugm-3
25-01-2001,24:00,72,R,ugm-3
26-01-2001,01:00,72,R,ugm-3
26-01-2001,02:00,72,R,ugm-3
26-01-2001,03:00,68,R,ugm-3
26-01-2001,04:00,68,R,ugm-3
26-01-2001,05:00,66,R,ugm-3
26-01-2001,06:00,64,R,ugm-3
26-01-2001,07:00,62,R,ugm-3
26-01-2001,08:00,58,R,ugm-3
26-01-2001,09:00,54,R,ugm-3
26-01-2001,10:00,48,R,ugm-3
26-01-2001,11:00,54,R,ugm-3
26-01-2001,12:00,58,R,ugm-3
26-01-2001,13:00,56,R,ugm-3
26-01-2001,14:00,58,R,ugm-3
26-01-2001,15:00,58,R,ugm-3
26-01-2001,16:00,52,R,ugm-3
26-01-2001,17:00,50,R,ugm-3
26-01-2001,18:00,58,R,ugm-3
26-01-2001,19:00,64,R,ugm-3
26-01-2001,20:00,64,R,ugm-3
26-01-2001,21:00,52,R,ugm-3
26-01-2001,22:00,32,R,ugm-3
26-01-2001,23:00,32,R,ugm-3
26-01-2001,24:00,6,R,ugm-3
27-01-2001,01:00,10,R,ugm-3
27-01-2001,02:00,10,R,ugm-3
27-01-2001,03:00,10,R,ugm-3
27-01-2001,04:00,26,R,ugm-3
27-01-2001,05:00,42,R,ugm-3
27-01-2001,06:00,50,R,ugm-3
27-01-2001,07:00,56,R,ugm-3
27-01-2001,08:00,58,R,ugm-3
27-01-2001,09:00,62,R,ugm-3
27-01-2001,10:00,64,R,ugm-3
27-01-2001,11:00,66,R,ugm-3
27-01-2001,12:00,66,R,ugm-3
27-01-2001,13:00,62,R,ugm-3
27-01-2001,14:00,62,R,ugm-3
27-01-2001,15:00,64,R,ugm-3
27-01-2001,16:00,62,R,ugm-3
27-01-2001,17:00,56,R,ugm-3
27-01-2001,18:00,50,R,ugm-3
27-01-2001,19:00,44,R,ugm-3
27-01-2001,20:00,32,R,ugm-3
27-01-2001,21:00,26,R,ugm-3
27-01-2001,22:00,24,R,ugm-3
27-01-2001,23:00,18,R,ugm-3
27-01-2001,24:00,14,R,ugm-3
28-01-2001,01:00,14,R,ugm-3
28-01-2001,02:00,14,R,ugm-3
28-01-2001,03:00,10,R,ugm-3
28-01-2001,04:00,6,R,ugm-3
28-01-2001,05:00,4,R,ugm-3
28-01-2001,06:00,4,R,ugm-3
28-01-2001,07:00,2,R,ugm-3
28-01-2001,08:00,4,R,ugm-3
28-01-2001,09:00,8,R,ugm-3
28-01-2001,10:00,14,R,ugm-3
28-01-2001,11:00,22,R,ugm-3
28-01-2001,12:00,28,R,ugm-3
28-01-2001,13:00,32,R,ugm-3
28-01-2001,14:00,34,R,ugm-3
28-01-2001,15:00,26,R,ugm-3
28-01-2001,16:00,14,R,ugm-3
28-01-2001,17:00,10,R,ugm-3
28-01-2001,18:00,20,R,ugm-3
28-01-2001,19:00,16,R,ugm-3
28-01-2001,20:00,8,R,ugm-3
28-01-2001,21:00,0,R,ugm-3
28-01-2001,22:00,2,R,ugm-3
28-01-2001,23:00,2,R,ugm-3
28-01-2001,24:00,2,R,ugm-3
29-01-2001,01:00,0,R,ugm-3
29-01-2001,02:00,0,R,ugm-3
29-01-2001,03:00,2,R,ugm-3
29-01-2001,04:00,4,R,ugm-3
29-01-2001,05:00,8,R,ugm-3
29-01-2001,06:00,6,R,ugm-3
29-01-2001,07:00,8,R,ugm-3
29-01-2001,08:00,6,R,ugm-3
29-01-2001,09:00,8,R,ugm-3
29-01-2001,10:00,12,R,ugm-3
29-01-2001,11:00,16,R,ugm-3
29-01-2001,12:00,16,R,ugm-3
29-01-2001,13:00,16,R,ugm-3
29-01-2001,14:00,18,R,ugm-3
29-01-2001,15:00,26,R,ugm-3
29-01-2001,16:00,30,R,ugm-3
29-01-2001,17:00,28,R,ugm-3
29-01-2001,18:00,26,R,ugm-3
29-01-2001,19:00,18,R,ugm-3
29-01-2001,20:00,2,R,ugm-3
29-01-2001,21:00,2,R,ugm-3
29-01-2001,22:00,6,R,ugm-3
29-01-2001,23:00,8,R,ugm-3
29-01-2001,24:00,2,R,ugm-3
30-01-2001,01:00,12,R,ugm-3
30-01-2001,02:00,16,R,ugm-3
30-01-2001,03:00,18,R,ugm-3
30-01-2001,04:00,20,R,ugm-3
30-01-2001,05:00,20,R,ugm-3
30-01-2001,06:00,26,R,ugm-3
30-01-2001,07:00,28,R,ugm-3
30-01-2001,08:00,22,R,ugm-3
30-01-2001,09:00,24,R,ugm-3
30-01-2001,10:00,28,R,ugm-3
30-01-2001,11:00,32,R,ugm-3
30-01-2001,12:00,28,R,ugm-3
30-01-2001,13:00,34,R,ugm-3
30-01-2001,14:00,32,R,ugm-3
30-01-2001,15:00,36,R,ugm-3
30-01-2001,16:00,40,R,ugm-3
30-01-2001,17:00,38,R,ugm-3
30-01-2001,18:00,36,R,ugm-3
30-01-2001,19:00,36,R,ugm-3
30-01-2001,20:00,30,R,ugm-3
30-01-2001,21:00,24,R,ugm-3
30-01-2001,22:00,18,R,ugm-3
30-01-2001,23:00,16,R,ugm-3
30-01-2001,24:00,12,R,ugm-3
31-01-2001,01:00,10,R,ugm-3
31-01-2001,02:00,8,R,ugm-3
31-01-2001,03:00,0,R,ugm-3
31-01-2001,04:00,0,R,ugm-3
31-01-2001,05:00,0,R,ugm-3
31-01-2001,06:00,0,R,ugm-3
31-01-2001,07:00,0,R,ugm-3
31-01-2001,08:00,0,R,ugm-3
31-01-2001,09:00,4,R,ugm-3
31-01-2001,10:00,12,R,ugm-3
31-01-2001,11:00,16,R,ugm-3
31-01-2001,12:00,14,R,ugm-3
31-01-2001,13:00,22,R,ugm-3
31-01-2001,14:00,28,R,ugm-3
31-01-2001,15:00,28,R,ugm-3
31-01-2001,16:00,28,R,ugm-3
31-01-2001,17:00,14,R,ugm-3
31-01-2001,18:00,0,R,ugm-3
31-01-2001,19:00,0,R,ugm-3
31-01-2001,20:00,0,R,ugm-3
31-01-2001,21:00,4,R,ugm-3
31-01-2001,22:00,20,R,ugm-3
31-01-2001,23:00,10,R,ugm-3
31-01-2001,24:00,6,R,ugm-3
01-02-2001,01:00,0,R,ugm-3
01-02-2001,02:00,2,R,ugm-3
01-02-2001,03:00,8,R,ugm-3
01-02-2001,04:00,12,R,ugm-3
01-02-2001,05:00,14,R,ugm-3
01-02-2001,06:00,14,R,ugm-3
01-02-2001,07:00,12,R,ugm-3
01-02-2001,08:00,12,R,ugm-3
01-02-2001,09:00,10,R,ugm-3
01-02-2001,10:00,10,R,ugm-3
01-02-2001,11:00,12,R,ugm-3
01-02-2001,12:00,14,R,ugm-3
01-02-2001,13:00,16,R,ugm-3
01-02-2001,14:00,16,R,ugm-3
01-02-2001,15:00,10,R,ugm-3
01-02-2001,16:00,6,R,ugm-3
01-02-2001,17:00,6,R,ugm-3
01-02-2001,18:00,0,R,ugm-3
01-02-2001,19:00,0,R,ugm-3
01-02-2001,20:00,2,R,ugm-3
01-02-2001,21:00,12,R,ugm-3
01-02-2001,22:00,44,R,ugm-3
01-02-2001,23:00,48,R,ugm-3
01-02-2001,24:00,46,R,ugm-3
02-02-2001,01:00,48,R,ugm-3
02-02-2001,02:00,50,R,ugm-3
02-02-2001,03:00,48,R,ugm-3
02-02-2001,04:00,42,R,ugm-3
02-02-2001,05:00,36,R,ugm-3
02-02-2001,06:00,30,R,ugm-3
02-02-2001,07:00,24,R,ugm-3
02-02-2001,08:00,18,R,ugm-3
02-02-2001,09:00,12,R,ugm-3
02-02-2001,10:00,8,R,ugm-3
02-02-2001,11:00,8,R,ugm-3
02-02-2001,12:00,6,R,ugm-3
02-02-2001,13:00,6,R,ugm-3
02-02-2001,14:00,18,R,ugm-3
02-02-2001,15:00,30,R,ugm-3
02-02-2001,16:00,30,R,ugm-3
02-02-2001,17:00,26,R,ugm-3
02-02-2001,18:00,18,R,ugm-3
02-02-2001,19:00,8,R,ugm-3
02-02-2001,20:00,2,R,ugm-3
02-02-2001,21:00,6,R,ugm-3
02-02-2001,22:00,4,R,ugm-3
02-02-2001,23:00,16,R,ugm-3
02-02-2001,24:00,26,R,ugm-3
03-02-2001,01:00,14,R,ugm-3
03-02-2001,02:00,24,R,ugm-3
03-02-2001,03:00,50,R,ugm-3
03-02-2001,04:00,52,R,ugm-3
03-02-2001,05:00,44,R,ugm-3
03-02-2001,06:00,50,R,ugm-3
03-02-2001,07:00,56,R,ugm-3
03-02-2001,08:00,52,R,ugm-3
03-02-2001,09:00,52,R,ugm-3
03-02-2001,10:00,50,R,ugm-3
03-02-2001,11:00,68,R,ugm-3
03-02-2001,12:00,78,R,ugm-3
03-02-2001,13:00,74,R,ugm-3
03-02-2001,14:00,72,R,ugm-3
03-02-2001,15:00,68,R,ugm-3
03-02-2001,16:00,62,R,ugm-3
03-02-2001,17:00,62,R,ugm-3
03-02-2001,18:00,58,R,ugm-3
03-02-2001,19:00,56,R,ugm-3
03-02-2001,20:00,48,R,ugm-3
03-02-2001,21:00,32,R,ugm-3
03-02-2001,22:00,0,R,ugm-3
03-02-2001,23:00,6,R,ugm-3
03-02-2001,24:00,40,R,ugm-3
04-02-2001,01:00,48,R,ugm-3
04-02-2001,02:00,48,R,ugm-3
04-02-2001,03:00,46,R,ugm-3
04-02-2001,04:00,38,R,ugm-3
04-02-2001,05:00,28,R,ugm-3
04-02-2001,06:00,30,R,ugm-3
04-02-2001,07:00,42,R,ugm-3
04-02-2001,08:00,66,R,ugm-3
04-02-2001,09:00,68,R,ugm-3
04-02-2001,10:00,66,R,ugm-3
04-02-2001,11:00,62,R,ugm-3
04-02-2001,12:00,46,R,ugm-3
04-02-2001,13:00,24,R,ugm-3
04-02-2001,14:00,22,R,ugm-3
04-02-2001,15:00,18,R,ugm-3
04-02-2001,16:00,14,R,ugm-3
04-02-2001,17:00,10,R,ugm-3
04-02-2001,18:00,8,R,ugm-3
04-02-2001,19:00,6,R,ugm-3
04-02-2001,20:00,12,R,ugm-3
04-02-2001,21:00,18,R,ugm-3
04-02-2001,22:00,8,R,ugm-3
04-02-2001,23:00,10,R,ugm-3
04-02-2001,24:00,10,R,ugm-3
05-02-2001,01:00,14,R,ugm-3
05-02-2001,02:00,6,R,ugm-3
05-02-2001,03:00,2,R,ugm-3
05-02-2001,04:00,6,R,ugm-3
05-02-2001,05:00,8,R,ugm-3
05-02-2001,06:00,8,R,ugm-3
05-02-2001,07:00,2,R,ugm-3
05-02-2001,08:00,4,R,ugm-3
05-02-2001,09:00,4,R,ugm-3
05-02-2001,10:00,6,R,ugm-3
05-02-2001,11:00,20,R,ugm-3
05-02-2001,12:00,40,R,ugm-3
05-02-2001,13:00,50,R,ugm-3
05-02-2001,14:00,60,R,ugm-3
05-02-2001,15:00,64,R,ugm-3
05-02-2001,16:00,64,R,ugm-3
05-02-2001,17:00,56,R,ugm-3
05-02-2001,18:00,50,R,ugm-3
05-02-2001,19:00,52,R,ugm-3
05-02-2001,20:00,50,R,ugm-3